Location: Waning Moon II Observatory
(30.3730°N, 89.7620°W)
Time: 11:36:22
(UTC-06:00)

Meteor 1-21 - Visible Passes

Search period start: 03 December 2016 00:00
Search period end: 13 December 2016 00:00
Orbit: 842 x 891 km, 81.2° (Epoch: 02 December)

Date Brightness Start Highest point End Pass type
(mag) Time Alt. Az. Time Alt. Az. Time Alt. Az.
08 Dec 6.8 06:16:11 10° NE 06:19:34 16° ENE 06:22:57 10° ESE visible
09 Dec 6.8 06:08:48 10° NE 06:12:15 16° ENE 06:15:42 10° ESE visible
10 Dec 6.8 06:01:27 10° NE 06:04:56 16° ENE 06:08:25 10° ESE visible
11 Dec 6.8 05:54:05 10° NE 05:57:37 17° ENE 06:01:09 10° ESE visible
12 Dec 6.8 05:46:44 10° NE 05:50:18 17° ENE 05:53:53 10° ESE visible
12 Dec 6.2 18:51:22 10° SSE 18:51:59 13° SSE 18:51:59 13° SSE visible
